Retour au catalogue

STARLINK-38116

ActifCommunicationsSSO
NORAD 100307·PAYLOAD·🇺🇸 United States

Lancé Aug 12, 2026 depuis Vandenberg Space Force Base

Loading…

Prochains Passages (prochaines 24 heures)

TLE

FraisSource: Space-Track

Époque: Sep 14, 2026, 01:51 UTC

1 A0307U 26184G   26257.07735504  .00030230  00000-0  83172-3 0  9996
2 A0307  97.2826 122.2513 0012891 339.8232  20.2501 15.37046848  6375

Suivez STARLINK-38116 en temps réel avec AllMySat

Download on the App Store